Date String (YYYY-MM-DD hh:mm:ss) UTC,Instrument flags,absolute air pressure of the measurement (hPa),sample flow rate (lpm),inlet stack bypass flow (lpm),air temperature of the measurement (°C),ambient temperature measured by the external sensor (°C),aerosol sample conditioner tube jacket temperature (°C),OPC LED temperature (°C),internal box temperature (°C),relative humidity of the measurement (%),span deviation,mass concentration of particles derived from Lorenz-Mie calculation of OPC scattering (μg/m³),mass concentration of particles derived from Lorenz-Mie calculation of OPC scattering (μg/m³),mass concentration of particles derived from Lorenz-Mie calculation of OPC scattering (μg/m³)
DateTimeUTC,F1_M11,P_M11,Q1_M11,Q2_M11,T1_M11,T2_M11,T3_M11,T4_M11,T5_M11,U1_M11,ZSPAN_M11,X0_M11,X2_M11,X1_M11
2024-01-12 12:00:00,SystemResetWarning,0817.8,5.00,000.00,019.1,018.9,000.0,027.4,020.8,6.4,0000.0,0001.83,0000.55,0000.39
2024-01-12 12:01:00,SystemResetWarning,0817.7,5.00,000.00,019.1,019.1,000.0,027.4,020.6,6.4,0000.0,0002.04,0000.55,0000.39
2024-01-12 12:02:00,SystemResetWarning,0817.8,4.99,000.00,019.1,018.8,000.0,027.3,020.1,6.4,0000.0,0002.06,0000.55,0000.39
2024-01-12 12:03:00,SystemResetWarning,0817.7,5.00,000.00,019.0,018.5,000.0,027.4,020.0,6.4,0000.0,0002.08,0000.55,0000.39
2024-01-12 12:04:00,SystemResetWarning,0817.8,5.01,000.00,019.0,018.2,000.0,027.4,020.0,6.4,0000.0,0002.14,0000.56,0000.40
2024-01-12 12:05:00,SystemResetWarning,0817.8,5.01,000.00,018.9,018.0,000.0,027.4,020.0,6.4,0000.0,0002.05,0000.56,0000.41
2024-01-12 12:06:00,SystemResetWarning,0817.8,5.00,000.00,018.9,017.8,000.0,027.4,020.0,6.4,0000.0,0002.06,0000.58,0000.42
2024-01-12 12:07:00,SystemResetWarning,0817.8,5.00,000.00,018.9,017.7,000.0,027.4,020.0,6.4,0000.0,0002.14,0000.62,0000.42
2024-01-12 12:08:00,SystemResetWarning,0817.7,5.00,000.00,018.9,018.0,000.0,027.4,020.4,6.4,0000.0,0001.94,0000.62,0000.42
2024-01-12 12:09:00,SystemResetWarning,0817.8,5.00,000.00,019.0,018.8,000.0,027.3,020.8,6.4,0000.0,0001.55,0000.64,0000.42
2024-01-12 12:10:00,SystemResetWarning,0817.8,5.00,000.00,019.1,019.0,000.0,027.3,020.6,6.4,0000.0,0001.54,0000.63,0000.41
2024-01-12 12:11:00,SystemResetWarning,0817.8,4.99,000.00,019.0,018.8,000.0,027.3,020.1,6.4,0000.0,0001.48,0000.61,0000.41
2024-01-12 12:12:00,SystemResetWarning,0817.8,5.00,000.00,019.0,018.5,000.0,027.4,020.0,6.4,0000.0,0001.07,0000.61,0000.41
2024-01-12 12:13:00,SystemResetWarning,0817.8,5.01,000.00,019.0,018.2,000.0,027.4,020.0,6.4,0000.0,0001.08,0000.61,0000.41
2024-01-12 12:14:00,SystemResetWarning,0817.8,5.00,000.00,018.9,018.0,000.0,027.4,020.0,6.4,0000.0,0001.16,0000.64,0000.41
2024-01-12 12:15:00,SystemResetWarning,0817.8,5.00,000.00,018.9,017.9,000.0,027.4,020.0,6.4,0000.0,0001.07,0000.63,0000.41
2024-01-12 12:16:00,SystemResetWarning,0817.8,5.01,000.00,018.9,017.8,000.0,027.4,020.1,6.4,0000.0,0001.04,0000.63,0000.41
2024-01-12 12:17:00,SystemResetWarning,0817.8,5.02,000.00,019.0,018.4,000.0,027.3,020.6,6.4,0000.0,0001.02,0000.61,0000.40
2024-01-12 12:18:00,SystemResetWarning,0817.8,4.99,000.00,019.1,019.1,000.0,027.3,020.9,6.3,0000.0,0001.23,0000.58,0000.40
2024-01-12 12:19:00,SystemResetWarning,0817.8,4.99,000.00,019.1,019.1,000.0,027.3,020.4,6.3,0000.0,0001.36,0000.63,0000.40
2024-01-12 12:20:00,SystemResetWarning,0817.8,5.00,000.00,019.0,018.8,000.0,027.3,020.0,6.3,0000.0,0001.32,0000.61,0000.40
2024-01-12 12:21:00,SystemResetWarning,0817.7,5.01,000.00,019.0,018.6,000.0,027.3,020.0,6.3,0000.0,0001.31,0000.60,0000.40
2024-01-12 12:22:00,SystemResetWarning,0817.7,5.01,000.00,019.0,018.3,000.0,027.4,020.0,6.3,0000.0,0001.99,0000.61,0000.41
2024-01-12 12:23:00,SystemResetWarning,0817.8,5.00,000.00,019.0,018.1,000.0,027.4,020.0,6.3,0000.0,0002.37,0000.62,0000.40
2024-01-12 12:24:00,SystemResetWarning,0817.8,5.00,000.00,018.9,018.0,000.0,027.4,020.0,6.3,0000.0,0002.48,0000.62,0000.40
2024-01-12 12:25:00,SystemResetWarning,0817.9,4.99,000.00,018.9,017.8,000.0,027.4,020.0,6.3,0000.0,0002.42,0000.60,0000.40
2024-01-12 12:26:00,SystemResetWarning,0817.9,4.99,000.00,018.9,017.7,000.0,027.4,020.1,6.3,0000.0,0002.41,0000.60,0000.39
2024-01-12 12:27:00,SystemResetWarning,0818.0,5.00,000.00,019.0,018.3,000.0,027.3,020.5,6.3,0000.0,0002.43,0000.59,0000.39
2024-01-12 12:28:00,SystemResetWarning,0817.9,5.01,000.00,019.1,019.0,000.0,027.3,020.8,6.2,0000.0,0002.43,0000.59,0000.39
2024-01-12 12:29:00,SystemResetWarning,0817.9,4.98,000.00,019.1,019.0,000.0,027.3,020.4,6.2,0000.0,0002.28,0000.60,0000.39
2024-01-12 12:30:00,SystemResetWarning,0818.0,4.99,000.00,019.0,018.7,000.0,027.3,020.0,6.2,0000.0,0002.13,0000.57,0000.39
2024-01-12 12:31:00,SystemResetWarning,0818.0,5.00,000.00,019.0,018.4,000.0,027.3,020.0,6.3,0000.0,0002.08,0000.55,0000.39
2024-01-12 12:32:00,SystemResetWarning,0818.0,5.00,000.00,018.9,018.1,000.0,027.4,020.0,6.3,0000.0,0002.06,0000.55,0000.40
2024-01-12 12:33:00,SystemResetWarning,0818.0,4.99,000.00,018.9,018.0,000.0,027.4,020.0,6.3,0000.0,0001.94,0000.54,0000.40
2024-01-12 12:34:00,SystemResetWarning,0817.9,4.99,000.00,018.9,017.8,000.0,027.4,020.0,6.3,0000.0,0001.22,0000.57,0000.40
2024-01-12 12:35:00,SystemResetWarning,0817.9,5.01,000.00,018.9,017.7,000.0,027.4,020.1,6.3,0000.0,0001.20,0000.57,0000.41
2024-01-12 12:36:00,SystemResetWarning,0817.9,5.02,000.00,018.9,018.2,000.0,027.3,020.5,6.2,0000.0,0001.16,0000.58,0000.41
2024-01-12 12:37:00,SystemResetWarning,0817.9,5.01,000.00,019.0,019.0,000.0,027.3,020.8,6.1,0000.0,0001.20,0000.60,0000.41
2024-01-12 12:38:00,SystemResetWarning,0817.9,4.98,000.00,019.1,019.0,000.0,027.3,020.4,6.1,0000.0,0001.20,0000.60,0000.41
2024-01-12 12:39:00,SystemResetWarning,0817.9,5.00,000.00,019.0,018.8,000.0,027.3,020.0,6.1,0000.0,0001.14,0000.58,0000.40
2024-01-12 12:40:00,SystemResetWarning,0817.9,5.01,000.00,019.0,018.5,000.0,027.3,020.0,6.1,0000.0,0001.07,0000.56,0000.40
2024-01-12 12:41:00,SystemResetWarning,0817.9,5.00,000.00,018.9,018.2,000.0,027.4,020.0,6.1,0000.0,0001.03,0000.56,0000.40
2024-01-12 12:42:00,SystemResetWarning,0817.9,5.00,000.00,018.9,018.0,000.0,027.4,020.0,6.2,0000.0,0001.10,0000.58,0000.40
2024-01-12 12:43:00,SystemResetWarning,0817.9,5.00,000.00,018.9,017.8,000.0,027.4,020.0,6.2,0000.0,0001.12,0000.58,0000.38
2024-01-12 12:44:00,SystemResetWarning,0817.9,4.99,000.00,018.9,017.9,000.0,027.4,020.2,6.2,0000.0,0001.09,0000.57,0000.38
2024-01-12 12:45:00,SystemResetWarning,0817.9,5.02,000.00,019.0,018.6,000.0,027.3,020.7,6.2,0000.0,0000.89,0000.53,0000.37
2024-01-12 12:46:00,SystemResetWarning,0817.9,5.00,000.00,019.1,019.1,000.0,027.3,020.7,6.1,0000.0,0000.82,0000.51,0000.37
2024-01-12 12:47:00,SystemResetWarning,0817.8,4.99,000.00,019.1,018.9,000.0,027.3,020.1,6.1,0000.0,0000.80,0000.50,0000.37
2024-01-12 12:48:00,SystemResetWarning,0817.8,5.01,000.00,019.0,018.7,000.0,027.3,020.0,6.1,0000.0,0000.89,0000.50,0000.36
2024-01-12 12:49:00,SystemResetWarning,0817.9,5.01,000.00,018.9,018.4,000.0,027.3,020.0,6.1,0000.0,0000.94,0000.52,0000.36
2024-01-12 12:50:00,SystemResetWarning,0817.8,5.01,000.00,018.9,018.3,000.0,027.4,020.0,6.2,0000.0,0000.97,0000.53,0000.37
2024-01-12 12:51:00,SystemResetWarning,0817.9,5.00,000.00,018.9,018.1,000.0,027.4,020.0,6.2,0000.0,0001.30,0000.57,0000.37
2024-01-12 12:52:00,SystemResetWarning,0817.9,5.00,000.00,018.9,017.9,000.0,027.4,020.0,6.2,0000.0,0001.41,0000.56,0000.36
2024-01-12 12:53:00,SystemResetWarning,0817.9,5.00,000.00,018.9,017.9,000.0,027.4,020.2,6.2,0000.0,0001.39,0000.54,0000.36
2024-01-12 12:54:00,SystemResetWarning,0817.9,5.01,000.00,019.0,018.6,000.0,027.3,020.6,6.1,0000.0,0001.44,0000.54,0000.37
2024-01-12 12:55:00,SystemResetWarning,0817.9,5.00,000.00,019.1,019.2,000.0,027.3,020.8,6.1,0000.0,0001.46,0000.54,0000.36
2024-01-12 12:56:00,SystemResetWarning,0817.8,5.00,000.00,019.0,019.0,000.0,027.3,020.2,6.1,0000.0,0001.50,0000.55,0000.36
2024-01-12 12:57:00,SystemResetWarning,0817.8,4.98,000.00,019.0,018.7,000.0,027.3,020.0,6.1,0000.0,0001.48,0000.55,0000.36
2024-01-12 12:58:00,SystemResetWarning,0817.8,5.00,000.00,018.9,018.4,000.0,027.3,020.0,6.2,0000.0,0001.80,0000.53,0000.35
2024-01-12 12:59:00,SystemResetWarning,0817.8,5.01,000.00,018.9,018.2,000.0,027.4,020.0,6.2,0000.0,0001.90,0000.51,0000.35
